Pontiac, MI

9:59 PM EST on December 13, 2017 (GMT -0500)
Oakland County International

Weather History for KPTK - August, 2014

Change the Weather History Date:

Saturday, August 16, 2014

  Actual Average Record
Temperature  
Mean Temperature 66 °F -  
Max Temperature 80 °F 76 °F 88 °F (2015)
Min Temperature 53 °F 58 °F 35 °F (1998)
Cooling Degree Days 1    
Growing Degree Days 16 (Base 50)    
Moisture  
Dew Point 56 °F    
Average Humidity 67    
Maximum Humidity 84    
Minimum Humidity 48    
Precipitation  
Precipitation 0.00 in - - ()
Sea Level Pressure  
Sea Level Pressure 29.90 in    
Wind  
Wind Speed 8 mph (WSW)    
Max Wind Speed 18 mph    
Max Gust Speed 28 mph    
Visibility 10 miles    
Events Rain    
Averages and records for this station are not official NWS values.
T = Trace of Precipitation, MM = Missing Value Source: NWS Daily Summary

Daily Weather History Graph

Daily Weather History Graph

Search for Another Location

Airport or City:

Trip Planner

Search our weather history database for the weather conditions in past years. The results will help you decide how hot, cold, wet, or windy it might be!

Date:

Astronomy

Aug. 16, 2014 Rise Set
Actual Time 6:41 AM EDT 8:33 PM EDT
Civil Twilight 6:10 AM EDT 9:04 PM EDT
Nautical Twilight 5:33 AM EDT 9:41 PM EDT
Astronomical Twilight 4:53 AM EDT 10:20 PM EDT
Moon No Moon Rise 1:36 PM EDT (8/16)
Length of Visible Light 14h 53m
Length of Day
13h 52m
Waning Gibbous, 59% of the Moon is Illuminated
Aug 16
Waning Gibbous
Aug 17
Last Quarter
Aug 25
New
Sep 2
First Quarter
Sep 8
Full

Hourly Weather History & Observations

Time (EDT) Temp. Dew Point Humidity Pressure Visibility Wind Dir Wind Speed Gust Speed Precip Events Conditions
1:53 AM 55.9 °F 50.0 °F 80% 29.96 in 10.0 mi West 3.5 mph - N/A   Unknown
2:53 AM 55.0 °F 50.0 °F 83% 29.95 in 10.0 mi SW 4.6 mph - N/A   Clear
3:53 AM 53.1 °F 48.0 °F 83% 29.93 in 10.0 mi WSW 4.6 mph - N/A   Clear
4:53 AM 54.0 °F 48.0 °F 80% 29.92 in 10.0 mi SSW 3.5 mph - N/A   Clear
5:53 AM 53.1 °F 48.0 °F 83% 29.93 in 10.0 mi WSW 3.5 mph - N/A   Partly Cloudy
6:53 AM 54.0 °F 48.0 °F 80% 29.92 in 10.0 mi WSW 4.6 mph - N/A   Scattered Clouds
7:53 AM 57.0 °F 48.9 °F 74% 29.92 in 10.0 mi WSW 5.8 mph - N/A   Mostly Cloudy
8:53 AM 61.0 °F 50.0 °F 67% 29.92 in 10.0 mi WSW 11.5 mph - N/A   Mostly Cloudy
9:53 AM 66.0 °F 50.0 °F 56% 29.91 in 10.0 mi WSW 12.7 mph - N/A   Mostly Cloudy
10:53 AM 70.0 °F 53.1 °F 55% 29.91 in 10.0 mi WSW 15.0 mph - N/A   Scattered Clouds
11:53 AM 72.0 °F 55.0 °F 55% 29.91 in 10.0 mi WSW 15.0 mph - N/A   Scattered Clouds
12:53 PM 75.0 °F 57.9 °F 55% 29.89 in 10.0 mi WSW 12.7 mph - N/A   Mostly Cloudy
1:53 PM 75.9 °F 57.0 °F 52% 29.88 in 10.0 mi WSW 15.0 mph 25.3 mph N/A   Mostly Cloudy
2:53 PM 79.0 °F 57.9 °F 48% 29.86 in 10.0 mi WSW 18.4 mph 27.6 mph N/A   Mostly Cloudy
3:53 PM 78.1 °F 57.9 °F 50% 29.86 in 10.0 mi WSW 17.3 mph - N/A   Mostly Cloudy
4:53 PM 78.1 °F 59.0 °F 52% 29.85 in 10.0 mi WSW 15.0 mph 24.2 mph N/A   Mostly Cloudy
5:53 PM 77.0 °F 61.0 °F 58% 29.85 in 10.0 mi WSW 13.8 mph - N/A   Mostly Cloudy
6:53 PM 75.9 °F 62.1 °F 62% 29.86 in 10.0 mi WSW 10.4 mph - N/A   Overcast
7:53 PM 75.0 °F 63.0 °F 66% 29.86 in 10.0 mi WNW 6.9 mph - 0.00 in   Overcast
8:53 PM 73.9 °F 63.0 °F 68% 29.87 in 10.0 mi WNW 6.9 mph - N/A   Overcast
9:53 PM 71.1 °F 63.0 °F 75% 29.89 in 10.0 mi NNW 5.8 mph - N/A   Overcast
10:53 PM 70.0 °F 64.0 °F 81% 29.90 in 10.0 mi NNW 4.6 mph - 0.00 in Rain Light Rain
11:53 PM 69.1 °F 64.0 °F 84% 29.91 in 10.0 mi WNW 5.8 mph - 0.00 in   Overcast